CW7410 Weather Reports


Display with metric or nautical units.
time (UTC)temp
F
wind
direction
speed
MPH
gust
MPH
rain 1hr
in
rain 24hr
in
rain mn
in
humidity
%
barometer
mb
20260505130108 53 360 4.0 9.0 0.00 0.00 0.00 68 1007.9
20260505125038 53 360 4.0 9.0 0.00 0.00 0.00 67 1007.8
20260505124602 53 360 4.0 9.0 0.00 0.00 0.00 67 1007.8
20260505124040 53 360 3.0 6.0 0.00 0.00 0.00 67 1007.7
20260505123541 53 360 3.0 6.0 0.00 0.00 0.00 67 1007.6
20260505123053 53 360 3.0 6.0 0.00 0.00 0.00 66 1007.6
20260505122540 53 360 1.0 4.0 0.00 0.00 0.00 66 1007.6
20260505122040 53 360 1.0 4.0 0.00 0.00 0.00 66 1007.6
20260505121551 53 360 2.0 5.0 0.00 0.00 0.00 66 1007.6
20260505121040 53 360 1.0 5.0 0.00 0.00 0.00 66 1007.6
20260505120542 54 360 2.0 5.0 0.00 0.00 0.00 66 1007.6
20260505120109 54 360 2.0 5.0 0.00 0.00 0.00 65 1007.6
20260505115537 54 360 1.0 5.0 0.00 0.00 0.00 65 1007.6
20260505115041 54 360 0.0 2.0 0.00 0.00 0.00 65 1007.6
20260505114556 54 0 0.0 5.0 0.00 0.00 0.00 65 1007.6
20260505114038 54 360 0.0 5.0 0.00 0.00 0.00 65 1007.6
20260505113542 54 360 1.0 5.0 0.00 0.00 0.00 65 1007.5
20260505113053 54 360 3.0 5.0 0.00 0.00 0.00 65 1007.4
20260505112540 54 360 3.0 5.0 0.00 0.00 0.00 65 1007.4
20260505112040 54 360 3.0 5.0 0.00 0.00 0.00 65 1007.4
20260505111553 54 360 2.0 6.0 0.00 0.00 0.00 64 1007.4
20260505111040 54 360 2.0 6.0 0.00 0.00 0.00 64 1007.4
20260505110540 54 360 2.0 8.0 0.00 0.00 0.00 64 1007.4
20260505102038 55 360 3.0 9.0 0.00 0.00 0.00 62 1007.3
20260505101550 55 360 3.0 9.0 0.00 0.00 0.00 62 1007.4
20260505101039 55 360 5.0 9.0 0.00 0.00 0.00 62 1007.4
20260505100537 55 360 5.0 10.0 0.00 0.00 0.00 62 1007.4
20260505100047 55 360 6.0 10.0 0.00 0.00 0.00 62 1007.4
20260505095539 55 360 5.0 10.0 0.00 0.00 0.00 62 1007.5
20260505095037 55 360 5.0 9.0 0.00 0.00 0.00 62 1007.5
20260505094551 55 360 5.0 8.0 0.00 0.00 0.00 63 1007.6
20260505094037 55 360 4.0 8.0 0.00 0.00 0.00 63 1007.6
20260505093537 55 360 2.0 8.0 0.00 0.00 0.00 63 1007.6
20260505093051 55 360 4.0 8.0 0.00 0.00 0.00 63 1007.7
20260505092539 55 360 4.0 9.0 0.00 0.00 0.00 63 1007.7
20260505092038 55 360 3.0 11.0 0.00 0.00 0.00 62 1007.7
20260505091550 55 360 4.0 11.0 0.00 0.00 0.00 62 1007.7
20260505091040 55 360 5.0 11.0 0.00 0.00 0.00 62 1007.6
20260505090537 55 360 5.0 15.0 0.00 0.00 0.00 62 1007.7
20260505090052 55 360 6.0 15.0 0.00 0.00 0.00 62 1007.8
20260505085538 55 360 8.0 13.0 0.00 0.00 0.00 62 1007.8
20260505085041 55 360 5.0 14.0 0.00 0.00 0.00 62 1007.8
20260505084555 55 360 6.0 14.0 0.00 0.00 0.00 62 1007.8
20260505084040 55 360 8.0 12.0 0.00 0.00 0.00 62 1007.8
20260505083540 55 360 6.0 12.0 0.00 0.00 0.00 62 1007.8
20260505083053 55 360 7.0 12.0 0.00 0.00 0.00 62 1007.8
20260505082540 55 360 7.0 12.0 0.00 0.00 0.00 62 1007.9
20260505082040 55 360 6.0 12.0 0.00 0.00 0.00 62 1007.9
20260505081558 55 360 7.0 14.0 0.00 0.00 0.00 63 1007.9
20260505081037 55 360 8.0 16.0 0.00 0.00 0.00 63 1008.0
20260505080538 55 360 9.0 16.0 0.00 0.00 0.00 63 1008.1
20260505080055 55 360 8.0 12.0 0.00 0.00 0.00 63 1008.1
20260505075540 55 360 8.0 10.0 0.00 0.00 0.00 63 1008.2
20260505075038 55 360 5.0 10.0 0.00 0.00 0.00 63 1008.3
20260505074551 55 360 5.0 10.0 0.00 0.00 0.00 63 1008.3
20260505074037 55 360 6.0 10.0 0.00 0.00 0.00 63 1008.3
20260505073538 55 360 6.0 10.0 0.00 0.00 0.00 63 1008.3
20260505073052 55 360 4.0 11.0 0.00 0.00 0.00 63 1008.3
20260505072539 55 360 5.0 11.0 0.00 0.00 0.00 63 1008.5
20260505072043 55 360 6.0 11.0 0.00 0.00 0.00 63 1008.5
20260505071553 55 360 7.0 11.0 0.00 0.00 0.00 62 1008.5
20260505071039 55 360 6.0 14.0 0.00 0.00 0.00 62 1008.6
20260505070543 55 360 7.0 14.0 0.00 0.00 0.00 62 1008.7
20260505070056 55 360 6.0 9.0 0.00 0.00 0.00 62 1008.7
20260505065538 56 360 4.0 8.0 0.00 0.00 0.00 62 1008.7
20260505065039 56 360 3.0 8.0 0.00 0.00 0.00 62 1008.7
20260505064546 56 360 5.0 8.0 0.00 0.00 0.00 62 1008.7
20260505064037 56 360 4.0 9.0 0.00 0.00 0.00 62 1008.7
20260505063538 56 360 4.0 11.0 0.00 0.00 0.00 61 1008.7
20260505063044 56 360 5.0 12.0 0.00 0.00 0.00 61 1008.7
20260505062538 56 360 7.0 15.0 0.00 0.00 0.00 61 1008.7
20260505062038 57 360 9.0 15.0 0.00 0.00 0.00 61 1008.6
20260505061559 57 360 9.0 16.0 0.00 0.00 0.00 61 1008.5
20260505061039 57 360 9.0 18.0 0.00 0.00 0.00 61 1008.5
20260505060543 57 360 10.0 18.0 0.00 0.00 0.00 61 1008.4
20260505060050 57 360 12.0 18.0 0.00 0.00 0.00 61 1008.3
20260505055539 57 360 11.0 17.0 0.00 0.00 0.00 60 1008.2
20260505055038 56 360 9.0 14.0 0.00 0.00 0.00 60 1008.1
20260505054554 56 360 8.0 13.0 0.00 0.00 0.00 59 1008.1
20260505054039 56 360 6.0 10.0 0.00 0.00 0.00 58 1007.9
20260505053537 56 360 4.0 10.0 0.00 0.00 0.00 57 1007.8
20260505053057 57 360 2.0 5.0 0.00 0.00 0.00 56 1007.5
20260505052537 57 360 2.0 5.0 0.00 0.00 0.00 56 1007.4
20260505052038 57 360 2.0 4.0 0.00 0.00 0.00 56 1007.4
20260505051546 57 360 2.0 4.0 0.00 0.00 0.00 55 1007.4
20260505051039 58 360 2.0 5.0 0.00 0.00 0.00 55 1007.4
20260505050538 58 360 3.0 6.0 0.00 0.00 0.00 55 1007.3
20260505041553 58 360 8.0 13.0 0.00 0.00 0.00 54 1006.9
20260505041039 58 360 6.0 10.0 0.00 0.00 0.00 53 1006.8
20260505040541 58 360 5.0 9.0 0.00 0.00 0.00 52 1006.8
20260505040053 59 360 4.0 8.0 0.00 0.00 0.00 52 1006.7
20260505035539 59 360 4.0 8.0 0.00 0.00 0.00 51 1006.6
20260505035038 59 360 4.0 8.0 0.00 0.00 0.00 51 1006.5
20260505034550 59 360 4.0 10.0 0.00 0.00 0.00 51 1006.5
20260505034039 59 360 4.0 10.0 0.00 0.00 0.00 51 1006.4
20260505033540 60 143 4.0 10.0 0.00 0.00 0.00 50 1006.4
20260505033049 60 360 3.0 7.0 0.00 0.00 0.00 49 1006.2
20260505032537 60 140 3.0 6.0 0.00 0.00 0.00 47 1006.1
20260505032038 61 140 2.0 4.0 0.00 0.00 0.00 47 1006.0
20260505031551 61 138 1.0 3.0 0.00 0.00 0.00 46 1005.8
20260505031038 62 134 1.0 4.0 0.00 0.00 0.00 46 1005.7
20260505030539 62 145 0.0 4.0 0.00 0.00 0.00 44 1005.7
20260505030052 63 154 0.0 5.0 0.00 0.00 0.00 44 1005.6
20260505025540 63 165 2.0 5.0 0.00 0.00 0.00 45 1005.6
20260505025038 64 167 0.0 5.0 0.00 0.00 0.00 44 1005.6
20260505024551 65 160 1.0 5.0 0.00 0.00 0.00 42 1005.4
20260505024037 65 156 2.0 5.0 0.00 0.00 0.00 41 1005.3
20260505023539 66 163 1.0 4.0 0.00 0.00 0.00 40 1005.3
20260505023056 66 155 1.0 5.0 0.00 0.00 0.00 40 1005.3
20260505022539 67 138 2.0 6.0 0.00 0.00 0.00 39 1005.4
20260505022043 68 147 2.0 7.0 0.00 0.00 0.00 38 1005.3
20260505021557 68 360 3.0 9.0 0.00 0.00 0.00 38 1005.3
20260505021037 69 109 4.0 9.0 0.00 0.00 0.00 38 1005.3
20260505020540 69 190 5.0 9.0 0.00 0.00 0.00 37 1005.3
20260505020052 70 186 5.0 9.0 0.00 0.00 0.00 36 1005.2
20260505015537 70 191 4.0 9.0 0.00 0.00 0.00 36 1005.2
20260505015038 71 175 4.0 9.0 0.00 0.00 0.00 35 1005.2
20260505014554 71 159 3.0 8.0 0.00 0.00 0.00 35 1005.1
20260505014039 72 167 3.0 8.0 0.00 0.00 0.00 35 1005.1
20260505013537 72 167 5.0 9.0 0.00 0.00 0.00 34 1005.1
20260505013047 73 162 5.0 9.0 0.00 0.00 0.00 34 1005.1
20260505012539 73 133 4.0 8.0 0.00 0.00 0.00 33 1005.1
20260505012041 73 173 5.0 7.0 0.00 0.00 0.00 33 1005.2
20260505011554 73 159 4.0 11.0 0.00 0.00 0.00 33 1005.2
20260505011041 74 150 4.0 12.0 0.00 0.00 0.00 32 1005.3
20260505010538 74 142 6.0 12.0 0.00 0.00 0.00 32 1005.3
20260505010101 74 85 6.0 12.0 0.00 0.00 0.00 33 1005.3
20260505005537 74 132 6.0 11.0 0.00 0.00 0.00 32 1005.3
20260505005038 74 194 5.0 14.0 0.00 0.00 0.00 32 1005.4
20260505004548 74 163 6.0 14.0 0.00 0.00 0.00 33 1005.4
20260505004037 74 189 7.0 14.0 0.00 0.00 0.00 32 1005.5
20260505003542 74 173 9.0 14.0 0.00 0.00 0.00 32 1005.6
20260505003050 74 140 6.0 17.0 0.00 0.00 0.00 33 1005.6
20260505002538 73 138 8.0 17.0 0.00 0.00 0.00 34 1005.7
20260505002039 73 163 7.0 15.0 0.00 0.00 0.00 34 1005.7
20260505001549 73 163 9.0 15.0 0.00 0.00 0.00 34 1005.7
20260505001037 73 165 7.0 12.0 0.00 0.00 0.00 35 1005.7
20260505000540 73 131 6.0 12.0 0.00 0.00 0.00 34 1005.7
20260505000055 73 186 7.0 22.0 0.00 0.00 0.00 33 1005.8
20260504235539 73 148 7.0 22.0 0.00 0.00 0.00 33 1005.7
20260504235039 74 194 10.0 21.0 0.00 0.00 0.00 32 1005.8
20260504234555 73 211 10.0 18.0 0.00 0.00 0.00 33 1005.8
20260504234037 73 203 10.0 19.0 0.00 0.00 0.00 32 1005.9
20260504233540 73 187 10.0 19.0 0.00 0.00 0.00 31 1005.8
20260504233054 73 178 12.0 19.0 0.00 0.00 0.00 31 1005.8
20260504232538 73 208 7.0 14.0 0.00 0.00 0.00 32 1005.7
20260504232038 73 219 6.0 14.0 0.00 0.00 0.00 33 1005.7
20260504231552 73 211 5.0 13.0 0.00 0.00 0.00 33 1005.8
20260504231038 73 205 7.0 14.0 0.00 0.00 0.00 32 1005.8
20260504230538 73 138 8.0 15.0 0.00 0.00 0.00 31 1005.8
20260504230052 73 202 8.0 20.0 0.00 0.00 0.00 30 1005.7
20260504225536 73 177 7.0 20.0 0.00 0.00 0.00 31 1005.8
20260504225041 73 217 11.0 20.0 0.00 0.00 0.00 33 1005.8
20260504224552 73 240 10.0 17.0 0.00 0.00 0.00 33 1005.8
20260504224040 73 194 8.0 18.0 0.00 0.00 0.00 34 1005.8
20260504223541 73 195 7.0 18.0 0.00 0.00 0.00 34 1005.8
20260504223049 73 184 10.0 20.0 0.00 0.00 0.00 33 1005.8
20260504222537 73 193 11.0 20.0 0.00 0.00 0.00 34 1005.8
20260504222039 74 235 12.0 23.0 0.00 0.00 0.00 32 1005.8
20260504221548 75 182 10.0 23.0 0.00 0.00 0.00 31 1005.8
20260504221038 76 202 11.0 23.0 0.00 0.00 0.00 29 1005.8
20260504220538 77 252 9.0 15.0 0.00 0.00 0.00 26 1005.8
20260504220111 76 240 6.0 13.0 0.00 0.00 0.00 26 1005.8
20260504215537 76 207 5.0 13.0 0.00 0.00 0.00 26 1005.9
20260504215036 76 228 8.0 13.0 0.00 0.00 0.00 27 1005.9
20260504214553 76 233 6.0 12.0 0.00 0.00 0.00 27 1006.0
20260504214038 77 252 4.0 11.0 0.00 0.00 0.00 27 1006.1
20260504213538 77 288 4.0 11.0 0.00 0.00 0.00 26 1006.1
20260504213053 76 310 6.0 11.0 0.00 0.00 0.00 27 1006.2
20260504212538 76 275 2.0 13.0 0.00 0.00 0.00 26 1006.4
20260504212039 76 291 5.0 14.0 0.00 0.00 0.00 26 1006.4
20260504211554 76 240 8.0 14.0 0.00 0.00 0.00 27 1006.5
20260504211038 76 195 4.0 12.0 0.00 0.00 0.00 28 1006.6
20260504210537 76 175 7.0 12.0 0.00 0.00 0.00 27 1006.7
20260504210050 76 237 5.0 15.0 0.00 0.00 0.00 28 1006.7
20260504205541 76 115 5.0 15.0 0.00 0.00 0.00 27 1006.7
20260504205037 76 259 7.0 15.0 0.00 0.00 0.00 27 1006.8
20260504204551 76 285 4.0 13.0 0.00 0.00 0.00 28 1006.8
20260504204038 76 338 8.0 13.0 0.00 0.00 0.00 28 1006.9
20260504203538 76 242 5.0 11.0 0.00 0.00 0.00 27 1006.9
20260504203049 76 277 5.0 14.0 0.00 0.00 0.00 28 1007.0
20260504202537 76 198 5.0 14.0 0.00 0.00 0.00 27 1007.0
20260504202038 76 238 7.0 14.0 0.00 0.00 0.00 29 1007.0
20260504201551 76 273 8.0 14.0 0.00 0.00 0.00 27 1007.0
20260504201041 76 317 7.0 15.0 0.00 0.00 0.00 28 1007.0
20260504200540 76 267 5.0 15.0 0.00 0.00 0.00 29 1007.1
20260504200059 76 254 8.0 14.0 0.00 0.00 0.00 29 1007.1
20260504195538 76 240 7.0 25.0 0.00 0.00 0.00 28 1007.1
20260504195037 76 225 9.0 25.0 0.00 0.00 0.00 30 1007.1
20260504194553 75 243 5.0 12.0 0.00 0.00 0.00 32 1006.8
20260504194038 76 297 3.0 12.0 0.00 0.00 0.00 30 1007.3
20260504193538 76 251 6.0 12.0 0.00 0.00 0.00 31 1007.4
20260504193054 76 242 5.0 12.0 0.00 0.00 0.00 31 1007.4
20260504192537 75 236 4.0 12.0 0.00 0.00 0.00 31 1007.4
20260504192038 75 259 4.0 12.0 0.00 0.00 0.00 32 1007.5
20260504191556 75 259 3.0 11.0 0.00 0.00 0.00 31 1007.6
20260504191038 75 238 6.0 11.0 0.00 0.00 0.00 29 1007.6
20260504190539 75 252 1.0 9.0 0.00 0.00 0.00 30 1007.6
20260504190107 75 351 5.0 9.0 0.00 0.00 0.00 29 1007.7
20260504185543 76 270 4.0 9.0 0.00 0.00 0.00 30 1007.8
20260504185038 75 202 2.0 5.0 0.00 0.00 0.00 29 1007.8
20260504184602 75 0 1.0 10.0 0.00 0.00 0.00 30 1007.8
20260504184038 75 0 1.0 10.0 0.00 0.00 0.00 32 1007.8
20260504183538 76 263 5.0 10.0 0.00 0.00 0.00 30 1007.9
20260504183056 76 234 4.0 9.0 0.00 0.00 0.00 30 1008.0
20260504182537 76 211 3.0 10.0 0.00 0.00 0.00 30 1008.0
20260504182042 76 200 5.0 10.0 0.00 0.00 0.00 31 1008.1
20260504181554 76 0 3.0 10.0 0.00 0.00 0.00 33 1008.2
20260504181038 75 213 2.0 10.0 0.00 0.00 0.00 31 1008.2
20260504180540 75 123 4.0 10.0 0.00 0.00 0.00 33 1008.3
20260504180054 75 167 2.0 8.0 0.00 0.00 0.00 31 1008.5
20260504175538 75 0 2.0 8.0 0.00 0.00 0.00 31 1008.5
20260504175038 75 128 4.0 8.0 0.00 0.00 0.00 32 1008.6
20260504174546 74 43 2.0 11.0 0.00 0.00 0.00 33 1008.6
20260504174038 74 153 3.0 11.0 0.00 0.00 0.00 32 1008.6
20260504173538 74 155 5.0 11.0 0.00 0.00 0.00 31 1008.7
20260504173047 74 215 0.0 10.0 0.00 0.00 0.00 32 1008.7
20260504172538 74 109 4.0 10.0 0.00 0.00 0.00 33 1008.7
20260504172038 74 180 2.0 8.0 0.00 0.00 0.00 35 1008.7
20260504171554 73 157 3.0 8.0 0.00 0.00 0.00 34 1008.8
20260504171040 73 188 3.0 13.0 0.00 0.00 0.00 35 1008.8
20260504170539 73 132 7.0 13.0 0.00 0.00 0.00 34 1008.8
20260504151037 67 140 6.0 9.0 0.00 0.00 0.00 44 1009.3
20260504150537 66 109 4.0 9.0 0.00 0.00 0.00 45 1009.4
20260504141037 59 140 3.0 7.0 0.00 0.00 0.00 55 1009.4
20260504140537 58 145 3.0 7.0 0.00 0.00 0.00 56 1009.4